Time,TemperatureF,DewpointF,PressureIn,WindDirection,WindDirectionDegrees,WindSpeedMPH,WindSpeedGustMPH,Humidity,HourlyPrecipIn,Conditions,Clouds,dailyrainin,SolarRadiationWatts/m^2,SoftwareType,DateUTC
2013-07-16 00:02:00,67.8,62.1,30.20,NNW,334,2.0,0.0,66,0.00,,,0.00,0.0,meteohub,2013-07-16 04:02:00,
2013-07-16 00:07:00,67.8,62.1,30.20,NNW,334,0.0,3.0,66,0.00,,,0.00,0.0,meteohub,2013-07-16 04:07:00,
2013-07-16 00:12:00,67.8,62.4,30.20,NNW,334,0.0,3.0,67,0.00,,,0.00,0.0,meteohub,2013-07-16 04:12:00,
2013-07-16 00:17:00,67.8,61.5,30.20,NNW,334,0.0,3.0,65,0.00,,,0.00,0.0,meteohub,2013-07-16 04:17:00,
2013-07-16 00:22:00,67.6,61.5,30.20,NNW,334,0.0,1.0,65,0.00,,,0.00,0.0,meteohub,2013-07-16 04:22:00,
2013-07-16 00:27:00,67.6,61.9,30.20,NNW,334,0.0,1.0,66,0.00,,,0.00,0.0,meteohub,2013-07-16 04:27:00,
2013-07-16 00:32:00,67.6,62.2,30.20,NNW,334,0.0,0.0,67,0.00,,,0.00,0.0,meteohub,2013-07-16 04:32:00,
2013-07-16 00:37:00,67.6,62.4,30.20,NNW,334,0.0,0.0,67,0.00,,,0.00,0.0,meteohub,2013-07-16 04:37:00,
2013-07-16 00:42:00,67.5,62.4,30.20,NNW,334,0.0,0.0,67,0.00,,,0.00,0.0,meteohub,2013-07-16 04:42:00,
2013-07-16 00:47:00,67.5,61.5,30.20,NNW,334,0.0,0.0,65,0.00,,,0.00,0.0,meteohub,2013-07-16 04:47:00,
2013-07-16 00:52:00,67.5,61.3,30.20,NNW,334,0.0,1.0,65,0.00,,,0.00,0.0,meteohub,2013-07-16 04:52:00,
2013-07-16 00:57:00,67.6,61.9,30.20,NNW,334,0.0,1.0,66,0.00,,,0.00,0.0,meteohub,2013-07-16 04:57:00,
2013-07-16 01:02:00,67.6,61.9,30.20,NNW,334,0.0,0.0,66,0.00,,,0.00,0.0,meteohub,2013-07-16 05:02:00,
2013-07-16 01:07:00,67.6,62.2,30.20,NNW,334,0.0,1.0,67,0.00,,,0.00,0.0,meteohub,2013-07-16 05:07:00,
2013-07-16 01:12:00,67.6,62.1,30.20,NNW,334,0.0,1.0,66,0.00,,,0.00,0.0,meteohub,2013-07-16 05:12:00,
2013-07-16 01:17:00,67.6,61.3,30.21,NNW,334,0.0,1.0,65,0.00,,,0.00,0.0,meteohub,2013-07-16 05:17:00,
2013-07-16 01:22:00,67.6,61.3,30.20,NNW,334,0.0,0.0,65,0.00,,,0.00,0.0,meteohub,2013-07-16 05:22:00,
2013-07-16 01:27:00,67.6,61.9,30.20,NNW,334,0.0,1.0,66,0.00,,,0.00,0.0,meteohub,2013-07-16 05:27:00,
2013-07-16 01:32:00,67.5,62.2,30.20,NNW,334,0.0,1.0,67,0.00,,,0.00,0.0,meteohub,2013-07-16 05:32:00,
2013-07-16 01:37:00,67.3,62.2,30.20,NNW,334,0.0,1.0,67,0.00,,,0.00,0.0,meteohub,2013-07-16 05:37:00,
2013-07-16 01:42:00,67.1,61.3,30.20,NNW,334,0.0,1.0,65,0.00,,,0.00,0.0,meteohub,2013-07-16 05:42:00,
2013-07-16 01:47:00,66.9,61.3,30.20,NNW,329,1.0,0.0,65,0.00,,,0.00,0.0,meteohub,2013-07-16 05:47:00,
2013-07-16 01:52:00,66.9,61.9,30.20,WNW,290,0.0,2.0,66,0.00,,,0.00,0.0,meteohub,2013-07-16 05:52:00,
2013-07-16 01:57:00,66.7,62.2,30.20,WNW,290,0.0,2.0,67,0.00,,,0.00,0.0,meteohub,2013-07-16 05:57:00,
2013-07-16 02:02:00,66.7,61.3,30.19,WNW,290,0.0,2.0,65,0.00,,,0.00,0.0,meteohub,2013-07-16 06:02:00,
2013-07-16 02:07:00,66.6,61.3,30.19,WNW,290,0.0,0.0,65,0.00,,,0.00,0.0,meteohub,2013-07-16 06:07:00,
2013-07-16 02:12:00,66.6,61.9,30.19,WNW,290,0.0,0.0,66,0.00,,,0.00,0.0,meteohub,2013-07-16 06:12:00,
2013-07-16 02:17:00,66.4,61.9,30.19,WNW,290,0.0,0.0,66,0.00,,,0.00,0.0,meteohub,2013-07-16 06:17:00,
2013-07-16 02:22:00,66.4,62.2,30.19,WNW,290,0.0,1.0,67,0.00,,,0.00,0.0,meteohub,2013-07-16 06:22:00,
2013-07-16 02:27:00,66.2,62.2,30.19,WNW,290,0.0,2.0,67,0.00,,,0.00,0.0,meteohub,2013-07-16 06:27:00,
2013-07-16 02:32:00,66.2,61.3,30.19,WNW,290,0.0,2.0,65,0.00,,,0.00,0.0,meteohub,2013-07-16 06:32:00,
2013-07-16 02:37:00,66.0,61.3,30.19,WNW,290,0.0,2.0,65,0.00,,,0.00,0.0,meteohub,2013-07-16 06:37:00,
2013-07-16 02:42:00,66.0,61.9,30.19,WNW,290,0.0,0.0,66,0.00,,,0.00,0.0,meteohub,2013-07-16 06:42:00,
2013-07-16 02:47:00,65.8,61.9,30.19,WNW,290,0.0,0.0,66,0.00,,,0.00,0.0,meteohub,2013-07-16 06:47:00,
2013-07-16 02:52:00,65.8,62.2,30.19,WNW,290,0.0,0.0,67,0.00,,,0.00,0.0,meteohub,2013-07-16 06:52:00,
2013-07-16 02:57:00,65.8,62.2,30.19,WNW,290,0.0,0.0,67,0.00,,,0.00,0.0,meteohub,2013-07-16 06:57:00,
2013-07-16 03:02:00,65.7,61.9,30.19,WNW,290,0.0,0.0,66,0.00,,,0.00,0.0,meteohub,2013-07-16 07:02:00,
2013-07-16 03:07:00,65.7,61.3,30.19,WNW,290,0.0,0.0,65,0.00,,,0.00,0.0,meteohub,2013-07-16 07:07:00,
2013-07-16 03:12:00,65.5,61.3,30.19,WNW,290,0.0,0.0,65,0.00,,,0.00,0.0,meteohub,2013-07-16 07:12:00,
2013-07-16 03:17:00,65.5,61.9,30.19,WNW,290,0.0,0.0,66,0.00,,,0.00,0.0,meteohub,2013-07-16 07:17:00,
2013-07-16 03:22:00,65.5,61.9,30.19,WNW,290,0.0,0.0,66,0.00,,,0.00,0.0,meteohub,2013-07-16 07:22:00,
2013-07-16 03:27:00,65.5,62.2,30.19,WNW,290,0.0,0.0,67,0.00,,,0.00,0.0,meteohub,2013-07-16 07:27:00,
2013-07-16 03:32:00,65.5,61.0,30.19,WNW,290,0.0,0.0,64,0.00,,,0.00,0.0,meteohub,2013-07-16 07:32:00,
2013-07-16 03:37:00,65.3,61.3,30.19,WNW,290,0.0,0.0,65,0.00,,,0.00,0.0,meteohub,2013-07-16 07:37:00,
2013-07-16 03:42:00,65.1,61.3,30.19,WNW,290,0.0,0.0,65,0.00,,,0.00,0.0,meteohub,2013-07-16 07:42:00,
2013-07-16 03:47:00,65.1,61.7,30.19,WNW,290,0.0,0.0,66,0.00,,,0.00,0.0,meteohub,2013-07-16 07:47:00,
2013-07-16 03:52:00,65.1,61.7,30.19,WNW,290,0.0,0.0,66,0.00,,,0.00,0.0,meteohub,2013-07-16 07:52:00,
2013-07-16 03:57:00,64.9,61.3,30.19,WNW,290,0.0,0.0,65,0.00,,,0.00,0.0,meteohub,2013-07-16 07:57:00,
2013-07-16 04:02:00,64.9,61.3,30.19,WNW,290,0.0,0.0,65,0.00,,,0.00,0.0,meteohub,2013-07-16 08:02:00,
2013-07-16 04:07:00,64.8,61.7,30.19,WNW,289,0.0,0.0,66,0.00,,,0.00,0.0,meteohub,2013-07-16 08:07:00,
2013-07-16 04:12:00,64.6,61.7,30.19,WNW,290,0.0,0.0,66,0.00,,,0.00,0.0,meteohub,2013-07-16 08:12:00,
2013-07-16 04:17:00,64.6,62.1,30.19,WNW,290,0.0,0.0,67,0.00,,,0.00,0.0,meteohub,2013-07-16 08:17:00,
2013-07-16 04:22:00,64.6,62.1,30.19,WNW,290,0.0,0.0,67,0.00,,,0.00,0.0,meteohub,2013-07-16 08:22:00,
2013-07-16 04:27:00,64.4,61.7,30.19,WNW,290,0.0,0.0,66,0.00,,,0.00,0.0,meteohub,2013-07-16 08:27:00,
2013-07-16 04:32:00,64.2,61.3,30.19,WNW,290,0.0,0.0,65,0.00,,,0.00,0.0,meteohub,2013-07-16 08:32:00,
2013-07-16 04:37:00,64.2,61.3,30.19,WNW,290,0.0,0.0,65,0.00,,,0.00,0.0,meteohub,2013-07-16 08:37:00,
2013-07-16 04:42:00,64.0,61.7,30.19,WNW,290,0.0,0.0,66,0.00,,,0.00,0.0,meteohub,2013-07-16 08:42:00,
2013-07-16 04:47:00,64.0,61.7,30.19,WNW,290,0.0,0.0,66,0.00,,,0.00,0.0,meteohub,2013-07-16 08:47:00,
2013-07-16 04:52:00,64.0,62.1,30.19,WNW,290,0.0,0.0,67,0.00,,,0.00,0.0,meteohub,2013-07-16 08:52:00,
2013-07-16 04:57:00,64.0,62.1,30.19,WNW,290,0.0,0.0,67,0.00,,,0.00,0.0,meteohub,2013-07-16 08:57:00,
2013-07-16 05:02:00,64.0,61.7,30.19,WNW,290,0.0,0.0,66,0.00,,,0.00,0.0,meteohub,2013-07-16 09:02:00,
2013-07-16 05:07:00,64.0,61.3,30.19,WNW,290,0.0,0.0,65,0.00,,,0.00,0.0,meteohub,2013-07-16 09:07:00,
2013-07-16 05:12:00,64.0,61.3,30.19,WNW,290,0.0,0.0,65,0.00,,,0.00,0.0,meteohub,2013-07-16 09:12:00,
2013-07-16 05:22:00,63.9,61.7,30.19,WNW,290,0.0,0.0,66,0.00,,,0.00,0.0,meteohub,2013-07-16 09:22:00,
2013-07-16 05:27:00,63.9,62.1,30.19,WNW,290,0.0,0.0,67,0.00,,,0.00,0.0,meteohub,2013-07-16 09:27:00,
2013-07-16 05:32:00,63.9,61.7,30.20,WNW,290,0.0,0.0,66,0.00,,,0.00,0.0,meteohub,2013-07-16 09:32:00,
2013-07-16 05:37:00,63.7,60.8,30.20,WNW,290,0.0,0.0,64,0.00,,,0.00,0.0,meteohub,2013-07-16 09:37:00,
2013-07-16 05:42:00,63.7,61.3,30.20,WNW,290,0.0,0.0,65,0.00,,,0.00,0.0,meteohub,2013-07-16 09:42:00,
2013-07-16 05:47:00,63.5,61.7,30.20,WNW,290,0.0,0.0,66,0.00,,,0.00,0.0,meteohub,2013-07-16 09:47:00,
2013-07-16 05:52:00,63.3,61.7,30.20,WNW,290,0.0,0.0,66,0.00,,,0.00,0.0,meteohub,2013-07-16 09:52:00,
2013-07-16 05:57:00,63.3,62.1,30.21,WNW,290,0.0,0.0,67,0.00,,,0.00,0.0,meteohub,2013-07-16 09:57:00,
2013-07-16 06:02:00,63.3,62.1,30.21,WNW,290,0.0,0.0,67,0.00,,,0.00,0.0,meteohub,2013-07-16 10:02:00,
2013-07-16 06:07:00,63.3,61.7,30.21,WNW,290,0.0,0.0,66,0.00,,,0.00,0.0,meteohub,2013-07-16 10:07:00,
2013-07-16 06:12:00,63.3,61.3,30.21,WNW,290,0.0,0.0,65,0.00,,,0.00,0.0,meteohub,2013-07-16 10:12:00,
2013-07-16 06:17:00,63.3,61.3,30.21,WNW,290,0.0,0.0,65,0.00,,,0.00,0.0,meteohub,2013-07-16 10:17:00,
2013-07-16 06:22:00,63.7,61.9,30.21,WNW,290,0.0,0.0,66,0.00,,,0.00,0.0,meteohub,2013-07-16 10:22:00,
2013-07-16 06:27:00,63.7,62.1,30.21,WNW,290,0.0,0.0,66,0.00,,,0.00,0.0,meteohub,2013-07-16 10:27:00,
2013-07-16 06:32:00,63.5,61.5,30.21,WNW,290,0.0,0.0,65,0.00,,,0.00,5.0,meteohub,2013-07-16 10:32:00,
2013-07-16 06:37:00,63.3,61.2,30.21,WNW,290,0.0,0.0,64,0.00,,,0.00,9.0,meteohub,2013-07-16 10:37:00,
2013-07-16 06:42:00,63.3,61.7,30.21,WNW,290,0.0,0.0,65,0.00,,,0.00,11.0,meteohub,2013-07-16 10:42:00,
2013-07-16 06:47:00,63.1,61.7,30.21,WNW,290,0.0,0.0,65,0.00,,,0.00,18.0,meteohub,2013-07-16 10:47:00,
2013-07-16 06:52:00,63.1,62.2,30.21,WNW,290,0.0,0.0,66,0.00,,,0.00,23.0,meteohub,2013-07-16 10:52:00,
2013-07-16 06:57:00,63.1,61.3,30.21,WNW,290,0.0,0.0,64,0.00,,,0.00,19.0,meteohub,2013-07-16 10:57:00,
2013-07-16 07:02:00,63.3,61.3,30.21,WNW,290,0.0,0.0,64,0.00,,,0.00,18.0,meteohub,2013-07-16 11:02:00,
2013-07-16 07:07:00,63.5,61.5,30.21,WNW,290,0.0,0.0,65,0.00,,,0.00,21.0,meteohub,2013-07-16 11:07:00,
2013-07-16 07:12:00,63.7,61.5,30.21,WNW,290,0.0,1.0,65,0.00,,,0.00,25.0,meteohub,2013-07-16 11:12:00,
2013-07-16 07:17:00,63.7,61.3,30.21,WNW,290,0.0,1.0,64,0.00,,,0.00,32.0,meteohub,2013-07-16 11:17:00,
2013-07-16 07:22:00,63.7,61.7,30.22,WNW,289,0.0,1.0,65,0.00,,,0.00,44.0,meteohub,2013-07-16 11:22:00,
2013-07-16 07:27:00,63.9,61.7,30.22,WNW,289,0.0,1.0,65,0.00,,,0.00,51.0,meteohub,2013-07-16 11:27:00,
2013-07-16 07:32:00,63.9,61.5,30.22,WNW,289,0.0,1.0,64,0.00,,,0.00,53.0,meteohub,2013-07-16 11:32:00,
2013-07-16 07:37:00,64.0,61.5,30.22,WNW,289,0.0,1.0,64,0.00,,,0.00,62.0,meteohub,2013-07-16 11:37:00,
2013-07-16 07:42:00,64.0,61.5,30.22,SW,215,0.0,0.0,64,0.00,,,0.00,63.0,meteohub,2013-07-16 11:42:00,
2013-07-16 07:47:00,64.0,61.9,30.22,SW,215,1.0,1.0,65,0.00,,,0.00,70.0,meteohub,2013-07-16 11:47:00,
2013-07-16 07:52:00,64.2,62.1,30.22,SW,215,2.0,2.0,65,0.00,,,0.00,74.0,meteohub,2013-07-16 11:52:00,
2013-07-16 07:57:00,64.2,61.7,30.22,SSW,207,0.0,2.0,64,0.00,,,0.00,69.0,meteohub,2013-07-16 11:57:00,
2013-07-16 08:02:00,64.2,61.7,30.22,SSW,207,0.0,2.0,64,0.00,,,0.00,97.0,meteohub,2013-07-16 12:02:00,
2013-07-16 08:07:00,64.6,61.7,30.22,SSW,207,0.0,2.0,64,0.00,,,0.00,146.0,meteohub,2013-07-16 12:07:00,
2013-07-16 08:12:00,64.8,62.2,30.22,SSW,207,0.0,0.0,65,0.00,,,0.00,127.0,meteohub,2013-07-16 12:12:00,
2013-07-16 08:17:00,64.9,62.2,30.22,SSW,207,0.0,2.0,65,0.00,,,0.00,149.0,meteohub,2013-07-16 12:17:00,
2013-07-16 08:22:00,65.3,61.9,30.22,SSW,206,0.0,2.0,64,0.00,,,0.00,141.0,meteohub,2013-07-16 12:22:00,
2013-07-16 08:27:00,65.8,62.2,30.22,SSE,155,1.0,2.0,65,0.00,,,0.00,227.0,meteohub,2013-07-16 12:27:00,
2013-07-16 08:32:00,65.8,63.0,30.23,SSE,155,0.0,2.0,66,0.00,,,0.00,257.0,meteohub,2013-07-16 12:32:00,
2013-07-16 08:37:00,66.4,63.0,30.22,SSE,155,0.0,1.0,66,0.00,,,0.00,315.0,meteohub,2013-07-16 12:37:00,
2013-07-16 08:42:00,66.7,62.1,30.23,SSE,155,0.0,1.0,64,0.00,,,0.00,272.0,meteohub,2013-07-16 12:42:00,
2013-07-16 08:47:00,67.5,62.1,30.23,SSE,155,0.0,1.0,64,0.00,,,0.00,352.0,meteohub,2013-07-16 12:47:00,
2013-07-16 08:52:00,68.2,62.6,30.23,SSE,155,0.0,1.0,65,0.00,,,0.00,357.0,meteohub,2013-07-16 12:52:00,
2013-07-16 08:57:00,68.4,62.2,30.23,SSW,193,1.0,3.0,64,0.00,,,0.00,373.0,meteohub,2013-07-16 12:57:00,
2013-07-16 09:02:00,68.7,62.2,30.23,SSE,153,0.0,3.0,64,0.00,,,0.00,383.0,meteohub,2013-07-16 13:02:00,
2013-07-16 09:07:00,69.3,62.2,30.23,WSW,238,0.0,3.0,64,0.00,,,0.00,142.0,meteohub,2013-07-16 13:07:00,
2013-07-16 09:12:00,69.6,62.6,30.23,WSW,238,1.0,2.0,65,0.00,,,0.00,422.0,meteohub,2013-07-16 13:12:00,
2013-07-16 09:17:00,69.8,62.2,30.23,West,274,1.0,2.0,64,0.00,,,0.00,436.0,meteohub,2013-07-16 13:17:00,
2013-07-16 09:22:00,70.2,62.2,30.23,West,269,4.0,4.0,64,0.00,,,0.00,461.0,meteohub,2013-07-16 13:22:00,
2013-07-16 09:27:00,70.3,62.4,30.23,West,265,1.0,6.0,64,0.00,,,0.00,483.0,meteohub,2013-07-16 13:27:00,
2013-07-16 09:32:00,70.5,62.8,30.23,West,265,2.0,6.0,65,0.00,,,0.00,490.0,meteohub,2013-07-16 13:32:00,
2013-07-16 09:37:00,70.9,61.9,30.23,West,260,2.0,6.0,63,0.00,,,0.00,503.0,meteohub,2013-07-16 13:37:00,
2013-07-16 09:42:00,71.8,61.9,30.23,West,260,0.0,4.0,63,0.00,,,0.00,515.0,meteohub,2013-07-16 13:42:00,
2013-07-16 09:47:00,72.0,62.4,30.23,West,274,2.0,4.0,64,0.00,,,0.00,527.0,meteohub,2013-07-16 13:47:00,
2013-07-16 09:52:00,72.1,61.9,30.23,West,274,0.0,3.0,63,0.00,,,0.00,564.0,meteohub,2013-07-16 13:52:00,
2013-07-16 09:57:00,72.7,61.5,30.23,WNW,290,3.0,3.0,62,0.00,,,0.00,578.0,meteohub,2013-07-16 13:57:00,
2013-07-16 10:02:00,73.2,61.9,30.23,WNW,290,0.0,4.0,63,0.00,,,0.00,589.0,meteohub,2013-07-16 14:02:00,
2013-07-16 10:07:00,74.1,62.4,30.23,NNW,348,2.0,4.0,64,0.00,,,0.00,603.0,meteohub,2013-07-16 14:07:00,
2013-07-16 10:12:00,74.1,61.7,30.23,West,261,2.0,4.0,62,0.00,,,0.00,617.0,meteohub,2013-07-16 14:12:00,
2013-07-16 10:17:00,73.9,61.7,30.23,SW,234,2.0,4.0,62,0.00,,,0.00,626.0,meteohub,2013-07-16 14:17:00,
2013-07-16 10:22:00,74.5,62.1,30.22,SW,217,0.0,4.0,63,0.00,,,0.00,647.0,meteohub,2013-07-16 14:22:00,
2013-07-16 10:27:00,74.8,62.1,30.22,West,277,1.0,4.0,63,0.00,,,0.00,663.0,meteohub,2013-07-16 14:27:00,
2013-07-16 10:32:00,74.8,61.7,30.22,West,271,3.0,3.0,62,0.00,,,0.00,677.0,meteohub,2013-07-16 14:32:00,
2013-07-16 10:37:00,75.0,61.7,30.22,WSW,244,3.0,4.0,62,0.00,,,0.00,694.0,meteohub,2013-07-16 14:37:00,
2013-07-16 10:42:00,74.8,61.2,30.22,WSW,244,0.0,4.0,61,0.00,,,0.00,705.0,meteohub,2013-07-16 14:42:00,
2013-07-16 10:47:00,76.3,61.7,30.22,NW,306,0.0,4.0,62,0.00,,,0.00,715.0,meteohub,2013-07-16 14:47:00,
2013-07-16 10:52:00,76.1,61.7,30.22,SSW,212,3.0,4.0,62,0.00,,,0.00,726.0,meteohub,2013-07-16 14:52:00,
2013-07-16 10:57:00,76.5,61.2,30.22,South,181,0.0,5.0,61,0.00,,,0.00,744.0,meteohub,2013-07-16 14:57:00,
2013-07-16 11:02:00,77.7,61.2,30.22,West,273,2.0,5.0,61,0.00,,,0.00,765.0,meteohub,2013-07-16 15:02:00,
2013-07-16 11:07:00,77.7,61.7,30.22,WSW,248,2.0,5.0,62,0.00,,,0.00,780.0,meteohub,2013-07-16 15:07:00,
2013-07-16 11:12:00,78.4,61.3,30.22,SSE,148,1.0,4.0,61,0.00,,,0.00,810.0,meteohub,2013-07-16 15:12:00,
2013-07-16 11:17:00,78.6,60.8,30.22,WSW,252,4.0,4.0,60,0.00,,,0.00,833.0,meteohub,2013-07-16 15:17:00,
2013-07-16 11:22:00,79.0,61.3,30.21,NW,304,3.0,5.0,61,0.00,,,0.00,663.0,meteohub,2013-07-16 15:22:00,
2013-07-16 11:27:00,79.2,61.9,30.21,NW,322,0.0,6.0,62,0.00,,,0.00,983.0,meteohub,2013-07-16 15:27:00,
2013-07-16 11:32:00,78.6,61.3,30.21,East,92,2.0,6.0,61,0.00,,,0.00,315.0,meteohub,2013-07-16 15:32:00,
2013-07-16 11:37:00,78.6,60.8,30.21,SE,130,1.0,4.0,60,0.00,,,0.00,216.0,meteohub,2013-07-16 15:37:00,
2013-07-16 11:42:00,78.1,61.3,30.21,North,5,2.0,3.0,61,0.00,,,0.00,227.0,meteohub,2013-07-16 15:42:00,
2013-07-16 11:47:00,78.4,61.3,30.21,WNW,284,0.0,4.0,61,0.00,,,0.00,986.0,meteohub,2013-07-16 15:47:00,
2013-07-16 11:52:00,80.8,60.8,30.21,ESE,115,1.0,4.0,60,0.00,,,0.00,608.0,meteohub,2013-07-16 15:52:00,
2013-07-16 12:02:00,79.3,61.3,30.21,ESE,105,0.0,3.0,61,0.00,,,0.00,207.0,meteohub,2013-07-16 16:02:00,
2013-07-16 12:07:00,78.4,60.8,30.21,South,188,1.0,3.0,60,0.00,,,0.00,313.0,meteohub,2013-07-16 16:07:00,
2013-07-16 12:12:00,79.5,60.8,30.20,SW,229,2.0,4.0,60,0.00,,,0.00,1039.0,meteohub,2013-07-16 16:12:00,
2013-07-16 12:17:00,81.1,61.3,30.20,NE,45,3.0,6.0,61,0.00,,,0.00,1055.0,meteohub,2013-07-16 16:17:00,
2013-07-16 12:22:00,80.4,61.3,30.20,NNW,344,0.0,6.0,61,0.00,,,0.00,313.0,meteohub,2013-07-16 16:22:00,
2013-07-16 12:32:00,80.8,61.3,30.20,East,79,0.0,5.0,61,0.00,,,0.00,255.0,meteohub,2013-07-16 16:32:00,
2013-07-16 12:37:00,80.6,60.8,30.20,ENE,65,0.0,5.0,60,0.00,,,0.00,243.0,meteohub,2013-07-16 16:37:00,
2013-07-16 12:42:00,79.5,60.8,30.20,ENE,71,0.0,5.0,60,0.00,,,0.00,330.0,meteohub,2013-07-16 16:42:00,
2013-07-16 12:47:00,81.9,61.3,30.19,SE,140,1.0,4.0,61,0.00,,,0.00,1130.0,meteohub,2013-07-16 16:47:00,
2013-07-16 12:52:00,81.7,61.0,30.19,WSW,255,3.0,4.0,60,0.00,,,0.00,156.0,meteohub,2013-07-16 16:52:00,
2013-07-16 12:57:00,79.9,60.4,30.19,NNW,327,2.0,4.0,59,0.00,,,0.00,204.0,meteohub,2013-07-16 16:57:00,
2013-07-16 13:02:00,79.2,60.8,30.19,NW,311,0.0,5.0,60,0.00,,,0.00,243.0,meteohub,2013-07-16 17:02:00,
2013-07-16 13:07:00,80.1,60.8,30.19,WSW,254,0.0,5.0,60,0.00,,,0.00,1020.0,meteohub,2013-07-16 17:07:00,
2013-07-16 13:12:00,80.6,60.4,30.19,North,355,0.0,4.0,59,0.00,,,0.00,190.0,meteohub,2013-07-16 17:12:00,
2013-07-16 13:17:00,79.5,60.8,30.19,North,11,1.0,3.0,60,0.00,,,0.00,183.0,meteohub,2013-07-16 17:17:00,
2013-07-16 13:22:00,79.2,60.8,30.19,North,11,0.0,3.0,60,0.00,,,0.00,1041.0,meteohub,2013-07-16 17:22:00,
2013-07-16 13:27:00,82.0,60.4,30.19,WSW,245,3.0,3.0,59,0.00,,,0.00,1032.0,meteohub,2013-07-16 17:27:00,
2013-07-16 13:32:00,82.8,60.8,30.18,West,265,2.0,5.0,60,0.00,,,0.00,1053.0,meteohub,2013-07-16 17:32:00,
2013-07-16 13:37:00,82.8,60.8,30.18,WSW,249,1.0,6.0,60,0.00,,,0.00,1053.0,meteohub,2013-07-16 17:37:00,
2013-07-16 13:42:00,83.5,60.4,30.18,South,186,1.0,6.0,59,0.00,,,0.00,1076.0,meteohub,2013-07-16 17:42:00,
2013-07-16 13:47:00,83.7,60.8,30.18,SE,136,1.0,7.0,60,0.00,,,0.00,1079.0,meteohub,2013-07-16 17:47:00,
2013-07-16 13:52:00,84.0,60.8,30.18,East,81,2.0,7.0,60,0.00,,,0.00,1041.0,meteohub,2013-07-16 17:52:00,
2013-07-16 13:57:00,83.8,60.4,30.18,SE,140,5.0,8.0,59,0.00,,,0.00,1025.0,meteohub,2013-07-16 17:57:00,
2013-07-16 14:02:00,84.0,60.8,30.18,SSE,161,1.0,8.0,60,0.00,,,0.00,1021.0,meteohub,2013-07-16 18:02:00,
2013-07-16 14:07:00,83.8,60.8,30.17,SSW,196,0.0,8.0,60,0.00,,,0.00,1007.0,meteohub,2013-07-16 18:07:00,
2013-07-16 14:12:00,84.7,60.8,30.17,SSE,160,0.0,6.0,60,0.00,,,0.00,993.0,meteohub,2013-07-16 18:12:00,
2013-07-16 14:17:00,83.8,60.4,30.17,North,11,0.0,6.0,59,0.00,,,0.00,1056.0,meteohub,2013-07-16 18:17:00,
2013-07-16 14:22:00,85.5,60.8,30.17,SE,146,4.0,6.0,60,0.00,,,0.00,921.0,meteohub,2013-07-16 18:22:00,
2013-07-16 14:27:00,84.4,61.3,30.17,SSE,161,2.0,8.0,61,0.00,,,0.00,1037.0,meteohub,2013-07-16 18:27:00,
2013-07-16 14:32:00,84.6,60.4,30.17,SSW,193,2.0,8.0,59,0.00,,,0.00,1041.0,meteohub,2013-07-16 18:32:00,
2013-07-16 14:37:00,84.6,60.8,30.17,East,91,0.0,7.0,60,0.00,,,0.00,1013.0,meteohub,2013-07-16 18:37:00,
2013-07-16 14:42:00,84.6,60.8,30.17,NNE,25,1.0,6.0,60,0.00,,,0.00,1021.0,meteohub,2013-07-16 18:42:00,
2013-07-16 14:47:00,84.7,61.0,30.16,ESE,113,0.0,5.0,60,0.00,,,0.00,965.0,meteohub,2013-07-16 18:47:00,
2013-07-16 14:52:00,85.5,60.6,30.16,SSE,160,1.0,7.0,59,0.00,,,0.00,967.0,meteohub,2013-07-16 18:52:00,
2013-07-16 14:57:00,84.6,60.8,30.16,ENE,69,2.0,7.0,60,0.00,,,0.00,940.0,meteohub,2013-07-16 18:57:00,
2013-07-16 15:02:00,84.7,61.0,30.16,SSE,155,1.0,7.0,60,0.00,,,0.00,923.0,meteohub,2013-07-16 19:02:00,
2013-07-16 15:07:00,85.3,60.6,30.16,SSE,148,5.0,7.0,59,0.00,,,0.00,916.0,meteohub,2013-07-16 19:07:00,
2013-07-16 15:12:00,84.9,61.0,30.16,SSE,154,3.0,7.0,60,0.00,,,0.00,907.0,meteohub,2013-07-16 19:12:00,
2013-07-16 15:17:00,84.6,61.5,30.16,SSE,164,0.0,7.0,61,0.00,,,0.00,904.0,meteohub,2013-07-16 19:17:00,
2013-07-16 15:22:00,85.6,60.6,30.16,SE,134,2.0,7.0,59,0.00,,,0.00,900.0,meteohub,2013-07-16 19:22:00,
2013-07-16 15:27:00,85.1,61.0,30.15,South,182,3.0,7.0,60,0.00,,,0.00,889.0,meteohub,2013-07-16 19:27:00,
2013-07-16 15:32:00,84.6,61.0,30.15,SSW,208,3.0,8.0,60,0.00,,,0.00,879.0,meteohub,2013-07-16 19:32:00,
2013-07-16 15:37:00,84.9,61.0,30.15,SSE,149,3.0,8.0,60,0.00,,,0.00,865.0,meteohub,2013-07-16 19:37:00,
2013-07-16 15:42:00,84.9,61.0,30.15,SE,138,3.0,6.0,60,0.00,,,0.00,854.0,meteohub,2013-07-16 19:42:00,
2013-07-16 15:47:00,85.3,61.5,30.15,SSE,159,2.0,6.0,61,0.00,,,0.00,853.0,meteohub,2013-07-16 19:47:00,
2013-07-16 15:52:00,86.2,61.7,30.14,SSE,160,7.0,8.0,61,0.00,,,0.00,853.0,meteohub,2013-07-16 19:52:00,
2013-07-16 15:57:00,84.7,61.2,30.14,SSW,200,6.0,8.0,60,0.00,,,0.00,849.0,meteohub,2013-07-16 19:57:00,
2013-07-16 16:02:00,84.9,61.7,30.14,SE,128,5.0,8.0,61,0.00,,,0.00,786.0,meteohub,2013-07-16 20:02:00,
2013-07-16 16:07:00,85.3,61.7,30.15,SE,139,2.0,10.0,61,0.00,,,0.00,789.0,meteohub,2013-07-16 20:07:00,
2013-07-16 16:12:00,86.2,61.2,30.15,SE,132,4.0,10.0,60,0.00,,,0.00,826.0,meteohub,2013-07-16 20:12:00,
2013-07-16 16:17:00,86.2,61.7,30.14,South,177,5.0,10.0,61,0.00,,,0.00,886.0,meteohub,2013-07-16 20:17:00,
2013-07-16 16:22:00,85.6,61.7,30.14,ESE,121,4.0,8.0,61,0.00,,,0.00,909.0,meteohub,2013-07-16 20:22:00,
2013-07-16 16:27:00,87.3,61.2,30.14,SSE,152,4.0,8.0,60,0.00,,,0.00,673.0,meteohub,2013-07-16 20:27:00,
2013-07-16 16:32:00,86.5,61.2,30.15,ENE,65,1.0,8.0,60,0.00,,,0.00,589.0,meteohub,2013-07-16 20:32:00,
2013-07-16 16:37:00,85.8,61.7,30.14,SSE,159,2.0,8.0,61,0.00,,,0.00,580.0,meteohub,2013-07-16 20:37:00,
2013-07-16 16:42:00,85.3,61.2,30.14,SSE,166,2.0,6.0,60,0.00,,,0.00,446.0,meteohub,2013-07-16 20:42:00,
2013-07-16 16:47:00,84.9,61.0,30.14,SSE,158,0.0,6.0,59,0.00,,,0.00,232.0,meteohub,2013-07-16 20:47:00,
2013-07-16 16:52:00,84.4,61.3,30.14,ENE,74,2.0,6.0,60,0.00,,,0.00,176.0,meteohub,2013-07-16 20:52:00,
2013-07-16 16:57:00,82.6,61.3,30.14,ENE,63,0.0,4.0,60,0.00,,,0.00,146.0,meteohub,2013-07-16 20:57:00,
2013-07-16 17:02:00,81.9,61.0,30.14,ENE,67,1.0,3.0,59,0.00,,,0.00,120.0,meteohub,2013-07-16 21:02:00,
2013-07-16 17:07:00,81.3,61.3,30.14,East,94,1.0,4.0,60,0.00,,,0.00,97.0,meteohub,2013-07-16 21:07:00,
2013-07-16 17:12:00,80.8,61.0,30.14,East,94,1.0,4.0,59,0.00,,,0.00,84.0,meteohub,2013-07-16 21:12:00,
2013-07-16 17:17:00,80.1,60.8,30.14,ENE,63,1.0,4.0,59,0.00,,,0.00,81.0,meteohub,2013-07-16 21:17:00,
2013-07-16 17:22:00,78.8,61.2,30.14,NE,49,2.0,3.0,60,0.00,,,0.00,83.0,meteohub,2013-07-16 21:22:00,
2013-07-16 17:27:00,77.9,61.2,30.14,NE,51,4.0,5.0,60,0.00,,,0.00,88.0,meteohub,2013-07-16 21:27:00,
2013-07-16 17:32:00,77.4,60.8,30.14,ESE,111,0.0,7.0,59,0.00,,,0.00,97.0,meteohub,2013-07-16 21:32:00,
2013-07-16 17:37:00,77.0,61.2,30.14,ESE,113,2.0,9.0,60,0.00,,,0.00,116.0,meteohub,2013-07-16 21:37:00,
2013-07-16 17:42:00,76.6,61.2,30.15,NE,51,0.0,9.0,60,0.00,,,0.00,183.0,meteohub,2013-07-16 21:42:00,
2013-07-16 17:47:00,76.6,60.8,30.14,ESE,111,4.0,9.0,59,0.00,,,0.00,281.0,meteohub,2013-07-16 21:47:00,
2013-07-16 17:52:00,77.2,61.2,30.14,SE,127,6.0,8.0,60,0.00,,,0.00,359.0,meteohub,2013-07-16 21:52:00,
2013-07-16 17:57:00,77.5,61.2,30.14,ESE,109,0.0,8.0,60,0.00,,,0.00,454.0,meteohub,2013-07-16 21:57:00,
2013-07-16 18:02:00,78.4,60.8,30.14,NNE,30,1.0,8.0,59,0.00,,,0.00,506.0,meteohub,2013-07-16 22:02:00,
2013-07-16 18:07:00,79.2,60.6,30.15,SE,125,2.0,8.0,59,0.00,,,0.00,457.0,meteohub,2013-07-16 22:07:00,
2013-07-16 18:12:00,80.8,61.0,30.14,ESE,105,3.0,5.0,60,0.00,,,0.00,466.0,meteohub,2013-07-16 22:12:00,
2013-07-16 18:17:00,81.1,60.4,30.14,SE,124,4.0,5.0,59,0.00,,,0.00,271.0,meteohub,2013-07-16 22:17:00,
2013-07-16 18:22:00,81.0,60.4,30.14,ESE,117,0.0,5.0,59,0.00,,,0.00,431.0,meteohub,2013-07-16 22:22:00,
2013-07-16 18:27:00,81.7,60.6,30.14,SE,137,3.0,5.0,60,0.00,,,0.00,404.0,meteohub,2013-07-16 22:27:00,
2013-07-16 18:32:00,81.7,60.6,30.14,East,80,1.0,5.0,60,0.00,,,0.00,385.0,meteohub,2013-07-16 22:32:00,
2013-07-16 18:37:00,81.9,60.1,30.14,SE,132,2.0,5.0,59,0.00,,,0.00,376.0,meteohub,2013-07-16 22:37:00,
2013-07-16 18:42:00,82.2,60.4,30.14,East,97,2.0,5.0,60,0.00,,,0.00,359.0,meteohub,2013-07-16 22:42:00,
2013-07-16 18:47:00,82.0,61.0,30.14,ESE,106,0.0,7.0,61,0.00,,,0.00,343.0,meteohub,2013-07-16 22:47:00,
2013-07-16 18:52:00,82.2,60.8,30.14,SE,140,1.0,7.0,61,0.00,,,0.00,313.0,meteohub,2013-07-16 22:52:00,
2013-07-16 18:57:00,82.2,60.4,30.14,SE,127,2.0,7.0,60,0.00,,,0.00,302.0,meteohub,2013-07-16 22:57:00,
2013-07-16 19:02:00,82.2,60.4,30.14,ESE,118,1.0,6.0,60,0.00,,,0.00,264.0,meteohub,2013-07-16 23:02:00,
2013-07-16 19:07:00,82.0,60.8,30.14,East,91,2.0,4.0,61,0.00,,,0.00,169.0,meteohub,2013-07-16 23:07:00,
2013-07-16 19:12:00,81.3,60.4,30.14,ESE,104,3.0,7.0,60,0.00,,,0.00,90.0,meteohub,2013-07-16 23:12:00,
2013-07-16 19:17:00,80.2,60.3,30.14,East,90,0.0,7.0,60,0.00,,,0.00,49.0,meteohub,2013-07-16 23:17:00,
2013-07-16 19:22:00,79.3,60.6,30.14,East,97,1.0,7.0,61,0.00,,,0.00,35.0,meteohub,2013-07-16 23:22:00,
2013-07-16 19:27:00,78.6,61.2,30.15,SE,130,1.0,6.0,62,0.00,,,0.00,33.0,meteohub,2013-07-16 23:27:00,
2013-07-16 19:32:00,78.3,60.6,30.15,SE,130,0.0,6.0,61,0.00,,,0.00,33.0,meteohub,2013-07-16 23:32:00,
2013-07-16 19:37:00,77.5,60.6,30.15,SE,130,0.0,4.0,61,0.00,,,0.00,35.0,meteohub,2013-07-16 23:37:00,
2013-07-16 19:42:00,76.8,60.4,30.15,SE,130,0.0,3.0,61,0.00,,,0.00,37.0,meteohub,2013-07-16 23:42:00,
2013-07-16 19:47:00,76.5,61.0,30.15,SE,128,0.0,1.0,62,0.00,,,0.00,37.0,meteohub,2013-07-16 23:47:00,
2013-07-16 19:52:00,76.3,61.0,30.16,SE,129,0.0,2.0,62,0.00,,,0.00,33.0,meteohub,2013-07-16 23:52:00,
2013-07-16 19:57:00,76.3,60.4,30.16,SE,129,1.0,2.0,61,0.00,,,0.00,37.0,meteohub,2013-07-16 23:57:00,
2013-07-16 20:02:00,75.9,61.0,30.15,SE,129,0.0,2.0,62,0.00,,,0.00,42.0,meteohub,2013-07-17 00:02:00,
2013-07-16 20:07:00,75.7,61.3,30.15,SE,129,0.0,2.0,63,0.00,,,0.00,47.0,meteohub,2013-07-17 00:07:00,
2013-07-16 20:12:00,75.6,61.3,30.15,East,84,2.0,2.0,63,0.00,,,0.00,46.0,meteohub,2013-07-17 00:12:00,
2013-07-16 20:17:00,75.6,61.0,30.15,ENE,75,0.0,3.0,62,0.00,,,0.00,40.0,meteohub,2013-07-17 00:17:00,
2013-07-16 20:22:00,75.6,61.0,30.16,ENE,75,1.0,3.0,62,0.00,,,0.00,33.0,meteohub,2013-07-17 00:22:00,
2013-07-16 20:27:00,75.6,61.2,30.16,ENE,76,1.0,3.0,63,0.00,,,0.00,28.0,meteohub,2013-07-17 00:27:00,
2013-07-16 20:32:00,75.4,61.2,30.16,East,85,1.0,4.0,63,0.00,,,0.00,23.0,meteohub,2013-07-17 00:32:00,
2013-07-16 20:37:00,75.6,60.8,30.15,East,84,0.0,4.0,62,0.00,,,0.00,18.0,meteohub,2013-07-17 00:37:00,
2013-07-16 20:42:00,74.8,61.2,30.15,East,84,0.0,2.0,63,0.00,,,0.00,14.0,meteohub,2013-07-17 00:42:00,
2013-07-16 20:47:00,74.3,61.2,30.15,East,84,0.0,2.0,63,0.00,,,0.00,12.0,meteohub,2013-07-17 00:47:00,
2013-07-16 20:52:00,74.1,61.7,30.15,East,84,0.0,1.0,64,0.00,,,0.00,9.0,meteohub,2013-07-17 00:52:00,
2013-07-16 20:57:00,73.9,61.2,30.15,East,84,1.0,2.0,63,0.00,,,0.00,5.0,meteohub,2013-07-17 00:57:00,
2013-07-16 21:02:00,73.9,61.2,30.15,East,84,1.0,2.0,63,0.00,,,0.00,0.0,meteohub,2013-07-17 01:02:00,
2013-07-16 21:07:00,73.6,61.2,30.16,East,84,0.0,2.0,63,0.00,,,0.00,0.0,meteohub,2013-07-17 01:07:00,
2013-07-16 21:12:00,73.4,61.7,30.16,East,84,0.0,2.0,64,0.00,,,0.00,0.0,meteohub,2013-07-17 01:12:00,
2013-07-16 21:17:00,73.2,61.7,30.16,SE,140,1.0,1.0,64,0.00,,,0.00,0.0,meteohub,2013-07-17 01:17:00,
2013-07-16 21:22:00,72.9,61.2,30.16,SE,140,0.0,2.0,63,0.00,,,0.00,0.0,meteohub,2013-07-17 01:22:00,
2013-07-16 21:27:00,72.5,61.2,30.16,SE,140,0.0,2.0,63,0.00,,,0.00,0.0,meteohub,2013-07-17 01:27:00,
2013-07-16 21:32:00,72.3,61.7,30.16,SE,140,0.0,2.0,64,0.00,,,0.00,0.0,meteohub,2013-07-17 01:32:00,
2013-07-16 21:37:00,72.0,61.7,30.17,SE,140,0.0,1.0,64,0.00,,,0.00,0.0,meteohub,2013-07-17 01:37:00,
2013-07-16 21:42:00,71.8,61.2,30.17,SE,140,0.0,1.0,63,0.00,,,0.00,0.0,meteohub,2013-07-17 01:42:00,
2013-07-16 21:47:00,71.8,61.7,30.17,SE,140,0.0,1.0,64,0.00,,,0.00,0.0,meteohub,2013-07-17 01:47:00,
2013-07-16 21:52:00,71.8,61.7,30.17,SE,140,0.0,1.0,64,0.00,,,0.00,0.0,meteohub,2013-07-17 01:52:00,
2013-07-16 21:57:00,71.4,62.1,30.17,SE,140,0.0,1.0,65,0.00,,,0.00,0.0,meteohub,2013-07-17 01:57:00,
2013-07-16 22:02:00,71.2,61.7,30.17,SE,140,0.0,0.0,64,0.00,,,0.00,0.0,meteohub,2013-07-17 02:02:00,
2013-07-16 22:07:00,71.1,61.2,30.17,SE,140,0.0,0.0,63,0.00,,,0.00,0.0,meteohub,2013-07-17 02:07:00,
2013-07-16 22:12:00,70.9,61.5,30.17,SE,140,0.0,0.0,64,0.00,,,0.00,0.0,meteohub,2013-07-17 02:12:00,
2013-07-16 22:17:00,70.7,61.5,30.17,SE,140,0.0,0.0,64,0.00,,,0.00,0.0,meteohub,2013-07-17 02:17:00,
2013-07-16 22:22:00,70.5,61.9,30.17,SE,140,0.0,0.0,65,0.00,,,0.00,0.0,meteohub,2013-07-17 02:22:00,
2013-07-16 22:27:00,70.3,61.0,30.18,SE,140,0.0,0.0,63,0.00,,,0.00,0.0,meteohub,2013-07-17 02:27:00,
2013-07-16 22:32:00,70.3,61.5,30.18,SE,140,0.0,0.0,64,0.00,,,0.00,0.0,meteohub,2013-07-17 02:32:00,
2013-07-16 22:37:00,70.2,61.5,30.18,SE,140,0.0,0.0,64,0.00,,,0.00,0.0,meteohub,2013-07-17 02:37:00,
2013-07-16 22:42:00,70.0,61.9,30.18,SE,140,0.0,0.0,65,0.00,,,0.00,0.0,meteohub,2013-07-17 02:42:00,
2013-07-16 22:47:00,70.0,61.9,30.18,SE,140,0.0,0.0,65,0.00,,,0.00,0.0,meteohub,2013-07-17 02:47:00,
2013-07-16 22:52:00,69.6,61.5,30.18,SE,140,0.0,1.0,64,0.00,,,0.00,0.0,meteohub,2013-07-17 02:52:00,
2013-07-16 22:57:00,69.6,61.0,30.18,SE,140,0.0,1.0,63,0.00,,,0.00,0.0,meteohub,2013-07-17 02:57:00,
2013-07-16 23:02:00,69.6,61.5,30.18,SE,140,0.0,1.0,64,0.00,,,0.00,0.0,meteohub,2013-07-17 03:02:00,
2013-07-16 23:07:00,69.4,61.5,30.18,SE,140,0.0,1.0,64,0.00,,,0.00,0.0,meteohub,2013-07-17 03:07:00,
2013-07-16 23:12:00,69.4,61.9,30.18,SE,140,0.0,1.0,65,0.00,,,0.00,0.0,meteohub,2013-07-17 03:12:00,
2013-07-16 23:17:00,69.4,61.0,30.18,SE,140,0.0,1.0,63,0.00,,,0.00,0.0,meteohub,2013-07-17 03:17:00,
2013-07-16 23:22:00,69.4,61.3,30.18,SE,140,0.0,0.0,64,0.00,,,0.00,0.0,meteohub,2013-07-17 03:22:00,
2013-07-16 23:27:00,69.4,61.3,30.17,SE,140,0.0,0.0,64,0.00,,,0.00,0.0,meteohub,2013-07-17 03:27:00,
2013-07-16 23:32:00,69.4,61.7,30.18,SE,140,0.0,0.0,65,0.00,,,0.00,0.0,meteohub,2013-07-17 03:32:00,
2013-07-16 23:37:00,69.3,61.9,30.17,SE,140,0.0,1.0,65,0.00,,,0.00,0.0,meteohub,2013-07-17 03:37:00,
2013-07-16 23:42:00,69.1,61.5,30.17,SE,140,0.0,1.0,64,0.00,,,0.00,0.0,meteohub,2013-07-17 03:42:00,
2013-07-16 23:47:00,68.9,61.3,30.18,SE,140,0.0,1.0,64,0.00,,,0.00,0.0,meteohub,2013-07-17 03:47:00,
2013-07-16 23:52:00,68.5,61.7,30.18,SE,140,0.0,0.0,65,0.00,,,0.00,0.0,meteohub,2013-07-17 03:52:00,
2013-07-16 23:57:00,68.4,61.7,30.18,SE,140,0.0,0.0,65,0.00,,,0.00,0.0,meteohub,2013-07-17 03:57:00,